Погода в Михайловском

Россия / Алтайский край     51°49′08″N   79°42′38″E
темп.,
°C
ветер,
м/с
пор.,
м/с
влажн.,
%
обл.,
%
осадки,
мм/ч
давл.,
гПа
погр.,
м
18 мая, вт
вт1801:00+20юз334886 0.0 101535
04:00+18юз495375 0.0 1013158
07:00+19зюз5145253 0.0 1012392
10:00+26з7103363 0.0 1011793
13:00+30з59245 0.0 10093178
16:00+31з472177 0.0 10083154
19:00+24вюв224114 0.9 1007111
22:00+21ююв36526 0.2 1007133
19 мая, ср
ср1901:00+18ююв226949 0.9 100722
04:00+17зсз4871100 0.0 1005179
07:00+16зсз4977100 0.1 1006362
10:00+18ссз3569100 0.1 1006559
13:00+21ссз5656100 0.3 10061440
16:00+17с7862100 0.3 10071219
19:00+13ссв6106599 0.3 1010880
22:00+13с5859100 0.0 10111076
20 мая, чт
чт2001:00+11с595577 0.0 1012873
04:00+9с6115195 0.0 1013607
07:00+8ссв58525 0.0 1015779
10:00+11ссз7103047 0.0 10152360
13:00+10сз8941100 0.1 10172089
16:00+13ссз81225100 0.1 10163413
19:00+11с8122330 0.1 10192943
22:00+8ссв493177 0.0 1022617
21 мая, пт
пт2101:00+6с2439100 0.0 1024107
04:00+4ссз224390 0.0 102529
07:00+5с2342100 0.0 1026101
10:00+10с2328100 0.0 10271493
13:00+13ссв33225 0.0 10271897
16:00+15ссв332126 0.0 10262244
19:00+15св32235 0.0 10262114
22:00+11св353488 0.0 102882
22 мая, сб
сб2201:00+9вюв3541100 0.0 102998
04:00+8ююв244786 0.0 102969
07:00+8ю244584 0.0 1029108
10:00+15юз332597 0.0 1028931
13:00+19зюз441731 0.0 10271492
16:00+21з4416100 0.0 10251623
19:00+21зюз3417100 0.0 10251257
22:00+17юз2225100 0.0 102521